Weather History for 10739 - March, 2014

Change the Weather History Date:

Saturday, March 1, 2014

  Actual Average Record
Temperature  
Mean Temperature 42 °F -  
Max Temperature 46 °F 49 °F - ()
Min Temperature 37 °F 33 °F - ()
Degree Days  
Heating Degree Days 24    
Moisture  
Dew Point 35 °F    
Average Humidity 70    
Maximum Humidity 90    
Minimum Humidity 47    
Precipitation  
Precipitation 0.00 in - - ()
Sea Level Pressure  
Sea Level Pressure 29.62 in    
Wind  
Wind Speed 3 mph ()    
Max Wind Speed 7 mph    
Max Gust Speed -    
Visibility 13.9 miles    
Events Rain    
T = Trace of Precipitation, MM = Missing Value Source: Averaged Metar Reports

Daily Weather History Graph

Daily Weather History Graph

Search for Another Location

Airport or City:

Trip Planner

Search our weather history database for the weather conditions in past years. The results will help you decide how hot, cold, wet, or windy it might be!

Date:

Astronomy

Mar. 01, 2014 Rise Set
Actual Time 7:05 AM CET 6:06 PM CET
Civil Twilight 6:33 AM CET 6:38 PM CET
Nautical Twilight 5:57 AM CET 7:14 PM CET
Astronomical Twilight 5:20 AM CET 7:51 PM CET
Moon 6:45 AM CET (3/1) 6:40 PM CET (3/1)
Length of Visible Light 12h 04m
Length of Day
11h 00m
New Moon, 0% of the Moon is Illuminated
Mar 1
New Moon
Mar 8
First Quarter
Mar 16
Full
Mar 24
Last Quarter
Mar 30
New

Hourly Weather History & Observations

Time (CET) Temp. Dew Point Humidity Pressure Visibility Wind Dir Wind Speed Gust Speed Precip Events Conditions
12:00 AM 43 °F 35 °F 65% 29.62 in 44 mi WSW 2.2 mph - -   Overcast
1:00 AM 42 °F 37 °F 75% 29.63 in 44 mi NW 6.7 mph - -   Clear
2:00 AM 41 °F 36 °F 76% 29.63 in 37 mi WNW 6.7 mph - -  
3:00 AM 40 °F 35 °F 76% 29.63 in 40 mi WNW 6.7 mph - -   Overcast
4:00 AM 39 °F 35 °F 79% 29.63 in 34 mi West 2.2 mph - -  
5:00 AM 38 °F 35 °F 84% 29.64 in 25 mi West 2.2 mph - -  
6:00 AM 38 °F 35 °F 87% 29.64 in 19 mi ESE 2.2 mph - -   Overcast
7:00 AM 38 °F 35 °F 85% 29.65 in 14 mi WSW 2.2 mph - -  
8:00 AM 38 °F 36 °F 87% 29.65 in 25 mi SSW 2.2 mph - -   Overcast
9:00 AM 40 °F 35 °F 74% 29.65 in 44 mi SW 2.2 mph - -  
10:00 AM 42 °F 33 °F 62% 29.64 in 34 mi West 2.2 mph - -  
11:00 AM 45 °F 35 °F 59% 29.63 in 16 mi East 6.7 mph - -   Overcast
12:00 PM 44 °F 35 °F 61% 29.63 in 31 mi ESE 4.5 mph - -   Overcast
1:00 PM 46 °F 34 °F 51% 29.60 in 40 mi South 2.2 mph - -  
2:00 PM 46 °F 34 °F 52% 29.59 in 44 mi NW 2.2 mph - -   Overcast
3:00 PM 46 °F 33 °F 50% 29.59 in 44 mi North 2.2 mph - -   Overcast
4:00 PM 46 °F 33 °F 48% 29.58 in 44 mi NW 4.5 mph - -   Overcast
5:00 PM 46 °F 32 °F 47% 29.58 in 44 mi NW 4.5 mph - -   Overcast
6:00 PM 45 °F 35 °F 57% 29.59 in 37 mi NNE 4.5 mph - -   Overcast
7:00 PM 43 °F 37 °F 72% 29.60 in 22 mi ESE 4.5 mph - - Rain Light Drizzle
8:00 PM 42 °F 38 °F 79% 29.62 in 19 mi ESE 2.2 mph - - Rain Rain
9:00 PM 41 °F 38 °F 83% 29.62 in 7 mi SE 4.5 mph - - Rain Light Rain
10:00 PM 40 °F 38 °F 90% 29.62 in 11 mi SE 4.5 mph - - Rain Rain
11:00 PM 41 °F 38 °F 86% 29.62 in 11 mi South 4.5 mph - -   Overcast